sat.trackr.live / text

‹ back to catalog

STARLINK-32166

NORAD 60257 · 2024-131C

PAYLOAD ACTIVE UNKNOWN

§ Identity

Operator
Country
US
Launch date
2024-07-27
Launch site
AFETR
Launch vehicle
Mass (kg)
RCS (m²)

Purposes: comms

External: N2YO · Heavens-Above · Gunter

§ Orbital elements

Epoch: 2026-05-25T04:07:16.557024Z

Period
94.11 min
Inclination
53.1606°
Eccentricity
0.0001210
Mean motion
15.30197940 rev/d
Perigee alt
474.4 km
Apogee alt
476.1 km
Semi-major
6,853.4 km
B*
5.4507e-5
RAAN
57.5155°
Arg perigee
78.1605°
Mean anomaly
281.9531°
Rev number
10,342

§ Raw data

STARLINK-321661 60257U 24131C   26145.17171941  .00001255  00000+0  54507-4 0  99972 60257  53.1606  57.5155 0001210  78.1605 281.9531 15.30197940103420

JSON: /api/v1/satellites/60257 · /tle

For live sub-satellite position, see the globe view (requires WebGL).

§ Visibility from observer

Set your observer location to see the next 7 days of passes ≥ 10°. The values pass through the URL so the page stays shareable.

No JS? Fill the form by hand. The geolocation button needs JavaScript.